星链-1554 (STARLINK-1554 )

导读 | 豆包AI

STARLINK-1554是美国SpaceX星链(Starlink)项目的卫星,于2020年8月7日发射入轨,属于低轨卫星星座成员,目标是为全球提供覆盖广泛的高速卫星互联网服务。星链卫星通过组网构建天基通信系统,可弥补地面网络覆盖盲区,在偏远地区通信、应急联网等场景发挥作用,也引发了天文学观测与太空轨道资源的相关讨论。

基本信息
目录编号:
46055
目录名称:
STARLINK-1554
国际标识:
2020-055AE
轨道中心:
EARTH
卫星名称:
星链-1554
卫星全名:
星链-1554 (STARLINK-1554 )
卫星状态:
在轨 (已飞行2066 天)
发射日期:
2020-08-07 UTC
国别 :
美国 (US)
星等 :
--
轨道信息
数据来源 国际轨道数据
星历时间: 2026-04-04T00:48:50+0800
9小时前
查看轨道信息
半长轴: 6853.337km
偏心率: 0.0001475
轨道倾角: 53.159°
近地点辐角 91.101°
升交点赤经 357.865°
平近点角 269.016°
近地点: 474.189km
远地点: 476.211km
周期: 94.105分钟
每日圈数: 15.302051
详细信息
固有亮度:
5
最大亮度:
2.5
卫星平台:
Starlink V1.0
覆盖范围:
全球
运营商:
太空探索技术公司
运营商所在国:
美国
制造商(研发单位):
太空探索技术公司
制造商所在国:
美国
使用方式:
暂无
卫星简介
星链(Starlink)计划是由太空探索技术公司(SpaceX)提出的一个巨型低轨卫星互联网星座项目,计划在2019年至2024年间在太空搭建由约1.2万颗卫星组成的“星链”网络,其中1584颗将部署在地球上空550千米处的近地轨道,并从2020年开始工作。该卫星仍在工作。
2D轨道图
3D轨道图
轨道高度分析图
轨道倾角分析图
轨道综合分析图
查看轨道综合分析图